,

(GMT )
Lac Benoit

Weather History for CWDE - June, 2013

Change the Weather History Date:

Wednesday, June 12, 2013

  Actual Average Record
Temperature  
Mean Temperature 62 °F -  
Max Temperature 79 °F - - ()
Min Temperature 45 °F - - ()
Degree Days  
Heating Degree Days 3    
Growing Degree Days 12 (Base 50)    
Moisture  
Dew Point 32 °F    
Average Humidity 30    
Maximum Humidity 58    
Minimum Humidity 7    
Precipitation  
Precipitation 0.24 in - - ()
Sea Level Pressure  
Sea Level Pressure 29.80 in    
Wind  
Wind Speed 3 mph ()    
Max Wind Speed 7 mph    
Max Gust Speed -    
T = Trace of Precipitation, MM = Missing Value Source: Averaged Metar Reports

Daily Weather History Graph

Daily Weather History Graph

Search for Another Location

Airport or City:

Trip Planner

Search our weather history database for the weather conditions in past years. The results will help you decide how hot, cold, wet, or windy it might be!

Date:

Astronomy

Jun. 12, 2013 Rise Set
Actual Time 4:26 AM EDT 9:02 PM EDT
Civil Twilight 3:39 AM EDT 9:49 PM EDT
Nautical Twilight 2:26 AM EDT 11:03 PM EDT
Astronomical Twilight 1:16 AM EDT 12:12 AM EDT
Moon 8:24 AM EDT (6/12) 11:10 PM EDT (6/12)
Length of Visible Light 18h 10m
Length of Day
16h 35m
Waxing Crescent, 14% of the Moon is Illuminated
Jun 12
Waxing Crescent
Jun 16
First Quarter
Jun 23
Full
Jun 30
Last Quarter
Jul 8
New

Hourly Weather History & Observations

Time (EDT) Temp. Dew Point Humidity Pressure Visibility Wind Dir Wind Speed Gust Speed Precip Events Conditions
12:00 AM 57.2 °F 30.2 °F 36% 29.83 in - NE 4.6 mph - N/A   Unknown
1:00 AM 55.4 °F 32.0 °F 41% 29.83 in - NE 4.6 mph - N/A   Unknown
2:00 AM 55 °F 31 °F 28% 27.92 in - NE 3.5 mph - -  
3:00 AM 46.4 °F 32.0 °F 57% 29.84 in - NNE 2.3 mph - N/A   Unknown
4:00 AM 48.2 °F 33.8 °F 58% 29.84 in - NE 4.6 mph - N/A   Unknown
5:00 AM 48.2 °F 33.8 °F 58% 29.84 in - NE 4.6 mph - N/A   Unknown
6:00 AM 51.8 °F 35.6 °F 54% 29.84 in - NE 3.5 mph - N/A   Unknown
7:00 AM 59.0 °F 35.6 °F 42% 29.84 in - NE 2.3 mph - N/A   Unknown
8:00 AM 65 °F 37 °F 24% 29.84 in - ESE 1.2 mph - -  
8:00 AM 64.4 °F 37.4 °F 37% 29.84 in - ESE 1.2 mph - N/A   Unknown
9:00 AM 68.0 °F 37.4 °F 33% 29.85 in - NW 2.3 mph - N/A   Unknown
10:00 AM 69.8 °F 44.6 °F 40% 29.83 in - South 5.8 mph - N/A   Unknown
11:00 AM 73.4 °F 41.0 °F 31% 29.81 in - SW 2.3 mph - N/A   Unknown
12:00 PM 75.2 °F - N/A% 29.81 in - NNE 4.6 mph - N/A   Unknown
1:00 PM 75.2 °F 24.8 °F 15% 29.80 in - SW 3.5 mph - N/A   Unknown
2:00 PM 77 °F 26 °F 7% 29.78 in - NW 4.6 mph - -  
2:00 PM 77.0 °F 24.8 °F 14% 29.78 in - NW 4.6 mph - N/A   Unknown
3:00 PM 78.8 °F 28.4 °F 16% 29.78 in - NW 4.6 mph - N/A   Unknown
4:00 PM 78.8 °F 26.6 °F 15% 29.77 in - SSW 6.9 mph - N/A   Unknown
5:00 PM 77.0 °F 26.6 °F 16% 29.75 in - WNW 2.3 mph - N/A   Unknown
6:00 PM 75.2 °F 26.6 °F 17% 29.75 in - North 4.6 mph - N/A   Unknown
7:00 PM 73.4 °F 24.8 °F 16% 29.74 in - ENE 4.6 mph - N/A   Unknown
8:00 PM 69 °F 33 °F 15% 29.75 in - East 3.5 mph - -  
8:00 PM 69.8 °F 32.0 °F 25% 29.75 in - East 3.5 mph - N/A   Unknown
9:00 PM 64.4 °F 30.2 °F 28% 29.75 in - ESE 3.5 mph - N/A   Unknown
10:00 PM 60.8 °F 30.2 °F 31% 29.75 in - SE 4.6 mph - N/A   Unknown
11:00 PM 60.8 °F 32.0 °F 34% 29.74 in - SE 6.9 mph - N/A   Unknown